DW9029 Weather Reports


time (UTC)temp
C
wind
direction
speed
KPH
gust
KPH
rain 1hr
cm
rain 24hr
cm
rain mn
cm
humidity
%
barometer
mb
20260507144905 22 223 8.0 19.3 0.00 0.00 0.00 44 1008.2
20260507144404 22 245 9.7 19.3 0.00 0.00 0.00 45 1008.2
20260507143405 21 195 8.0 25.7 0.00 0.00 0.00 47 1008.2
20260507141905 21 243 8.0 20.9 0.00 0.00 0.00 50 1008.5
20260507141405 21 217 14.5 24.1 0.00 0.00 0.00 51 1008.5
20260507140905 21 197 14.5 20.9 0.00 0.00 0.00 51 1008.6
20260507140406 21 215 9.7 24.1 0.00 0.00 0.00 50 1008.6
20260507134405 21 199 9.7 19.3 0.00 0.00 0.00 52 1008.7
20260507133905 21 218 14.5 22.5 0.00 0.00 0.00 51 1008.8
20260507133405 21 217 9.7 22.5 0.00 0.00 0.00 52 1008.9
20260507131906 21 180 8.0 19.3 0.00 0.00 0.00 52 1009.0
20260507131405 21 227 14.5 24.1 0.00 0.00 0.00 52 1009.0
20260507130404 21 205 9.7 22.5 0.00 0.00 0.00 53 1009.0
20260507124905 21 192 14.5 25.7 0.00 0.00 0.00 52 1009.1
20260507124405 21 242 9.7 19.3 0.00 0.00 0.00 53 1009.1
20260507123904 21 184 12.9 27.4 0.00 0.00 0.00 53 1009.3
20260507123404 21 226 9.7 22.5 0.00 0.00 0.00 53 1009.2
20260507121904 21 212 8.0 14.5 0.00 0.00 0.00 55 1009.4
20260507121405 21 185 9.7 19.3 0.00 0.00 0.00 56 1009.4
20260507120905 20 232 11.3 27.4 0.00 0.00 0.00 56 1009.4
20260507120405 21 216 12.9 24.1 0.00 0.00 0.00 55 1009.5
20260507114905 21 205 9.7 14.5 0.00 0.00 0.00 54 1009.6
20260507114404 21 189 11.3 19.3 0.00 0.00 0.00 53 1009.6
20260507113904 21 180 9.7 19.3 0.00 0.00 0.00 53 1009.7
20260507113404 21 202 3.2 20.9 0.00 0.00 0.00 55 1009.6
20260507111905 20 189 9.7 22.5 0.00 0.00 0.00 57 1009.8
20260507111404 20 183 11.3 20.9 0.00 0.00 0.00 57 1009.8
20260507110905 20 200 9.7 16.1 0.00 0.00 0.00 59 1009.9
20260507110405 20 213 9.7 22.5 0.00 0.00 0.00 59 1009.8
20260507103405 19 199 9.7 19.3 0.00 0.00 0.00 63 1009.9
20260507101904 19 211 12.9 20.9 0.00 0.00 0.00 64 1010.1
20260507101405 19 160 1.6 20.9 0.00 0.00 0.00 65 1010.1
20260507100905 20 185 6.4 19.3 0.00 0.00 0.00 64 1010.1
20260507094905 19 200 3.2 16.1 0.00 0.00 0.00 67 1010.3
20260507094405 18 148 8.0 25.7 0.00 0.00 0.00 66 1010.3
20260507093904 18 137 6.4 24.1 0.00 0.00 0.00 67 1010.3
20260507091905 18 172 4.8 14.5 0.00 0.00 0.00 71 1010.2
20260507091404 18 179 9.7 19.3 0.00 0.00 0.00 71 1010.3
20260507090905 18 185 11.3 24.1 0.00 0.00 0.00 71 1010.3
20260507090405 18 192 11.3 22.5 0.00 0.00 0.00 70 1010.3
20260507084905 18 174 8.0 19.3 0.00 0.00 0.00 73 1010.3
20260507084405 17 164 6.4 20.9 0.00 0.00 0.00 74 1010.3
20260507083404 17 162 9.7 24.1 0.00 0.00 0.00 74 1010.2
20260507081905 17 183 6.4 16.1 0.00 0.00 0.00 75 1010.1
20260507080904 17 160 8.0 12.9 0.00 0.00 0.00 75 1010.1
20260507080404 17 187 9.7 16.1 0.00 0.00 0.00 76 1010.1
20260507074905 16 125 4.8 14.5 0.00 0.00 0.00 77 1010.0
20260507074405 16 133 8.0 16.1 0.00 0.00 0.00 77 1010.0
20260507073904 16 155 3.2 11.3 0.00 0.00 0.00 78 1009.9
20260507073404 15 131 4.8 12.9 0.00 0.00 0.00 78 1009.9
20260507071405 15 129 4.8 9.7 0.00 0.00 0.00 78 1009.7
20260507070905 15 109 3.2 8.0 0.00 0.00 0.00 78 1009.7
20260507070405 15 119 1.6 4.8 0.00 0.00 0.00 78 1009.7
20260507064405 14 129 0.0 0.0 0.00 0.00 0.00 80 1009.6
20260507063405 14 128 0.0 1.6 0.00 0.00 0.00 81 1009.6
20260507061904 14 127 0.0 0.0 0.00 0.00 0.00 80 1009.5
20260507061404 13 163 0.0 0.0 0.00 0.00 0.00 81 1009.4
20260507060905 13 163 0.0 0.0 0.00 0.00 0.00 82 1009.4
20260507054905 13 173 0.0 0.0 0.00 0.00 0.00 83 1009.1
20260507054404 13 174 0.0 0.0 0.00 0.00 0.00 83 1009.1
20260507053905 13 174 0.0 0.0 0.00 0.00 0.00 83 1009.1
20260507053405 13 174 0.0 0.0 0.00 0.00 0.00 83 1009.0
20260507051905 13 175 0.0 0.0 0.00 0.00 0.00 83 1009.1
20260507050904 13 175 0.0 0.0 0.00 0.00 0.00 83 1009.0
20260507044905 13 175 0.0 0.0 0.00 0.00 0.00 84 1008.8
20260507044404 13 175 0.0 0.0 0.00 0.00 0.00 84 1008.8
20260507043904 13 175 0.0 0.0 0.00 0.00 0.00 84 1008.7
20260507043405 13 175 0.0 0.0 0.00 0.00 0.00 84 1008.7
20260507041904 13 175 0.0 0.0 0.00 0.00 0.00 83 1008.6
20260507041405 13 175 0.0 0.0 0.00 0.00 0.00 83 1008.4
20260507034905 13 175 0.0 0.0 0.00 0.00 0.00 81 1008.4
20260507034404 13 181 0.0 0.0 0.00 0.00 0.00 81 1008.3
20260507033905 13 207 0.0 0.0 0.00 0.00 0.00 80 1008.3
20260507031904 13 207 0.0 0.0 0.00 0.00 0.00 80 1008.4
20260507031405 13 207 0.0 0.0 0.00 0.00 0.00 79 1008.4
20260507030905 13 207 0.0 0.0 0.00 0.00 0.00 79 1008.4
20260507030405 13 207 0.0 0.0 0.00 0.00 0.00 79 1008.3
20260507024905 14 207 0.0 0.0 0.00 0.00 0.00 79 1008.2
20260507023905 14 207 0.0 0.0 0.00 0.00 0.00 78 1008.2
20260507021904 14 188 0.0 0.0 0.00 0.00 0.00 78 1008.1
20260507021404 14 187 0.0 4.8 0.00 0.00 0.00 78 1008.1
20260507020405 14 181 0.0 4.8 0.00 0.00 0.00 78 1008.1
20260507014905 14 182 1.6 8.0 0.00 0.00 0.00 77 1008.2
20260507014404 14 177 1.6 4.8 0.00 0.00 0.00 77 1008.2
20260507013904 14 179 0.0 4.8 0.00 0.00 0.00 77 1008.3
20260507011905 14 181 1.6 4.8 0.00 0.00 0.00 77 1008.4
20260507011404 14 178 0.0 0.0 0.00 0.00 0.00 77 1008.5
20260507010404 14 167 1.6 4.8 0.00 0.00 0.00 77 1008.5
20260507003905 14 182 0.0 0.0 0.00 0.00 0.00 76 1008.6
20260507003405 14 183 0.0 4.8 0.00 0.00 0.00 76 1008.6
20260507001904 14 174 1.6 11.3 0.00 0.00 0.00 76 1008.7
20260507001405 14 184 1.6 9.7 0.00 0.00 0.00 76 1008.8
20260507000406 15 186 3.2 11.3 0.00 0.00 0.00 76 1008.8
20260506233905 15 184 1.6 8.0 0.00 0.00 0.00 76 1008.9
20260506233405 15 186 1.6 4.8 0.00 0.00 0.00 77 1009.0
20260506231904 15 175 0.0 0.0 0.00 0.00 0.00 76 1009.0
20260506231404 15 175 0.0 0.0 0.00 0.00 0.00 76 1008.9
20260506230905 15 175 0.0 0.0 0.00 0.00 0.00 75 1009.0
20260506230405 15 178 0.0 4.8 0.00 0.00 0.00 74 1008.9
20260506224405 15 217 0.0 3.2 0.00 0.00 0.00 73 1009.0
20260506223405 15 182 0.0 8.0 0.00 0.00 0.00 71 1009.0
20260506221905 15 188 3.2 8.0 0.00 0.00 0.00 68 1009.0
20260506221405 15 170 0.0 4.8 0.00 0.00 0.00 67 1009.0
20260506220905 16 174 0.0 3.2 0.00 0.00 0.00 66 1008.9
20260506220404 16 192 0.0 4.8 0.00 0.00 0.00 66 1008.8
20260506214904 16 176 0.0 4.8 0.00 0.00 0.00 64 1008.9
20260506214405 16 166 0.0 3.2 0.00 0.00 0.00 63 1008.9
20260506213904 16 171 0.0 4.8 0.00 0.00 0.00 62 1008.9
20260506213405 17 162 1.6 8.0 0.00 0.00 0.00 60 1008.8
20260506211905 17 192 1.6 11.3 0.00 0.00 0.00 57 1008.6
20260506210904 17 230 0.0 11.3 0.00 0.00 0.00 57 1008.5
20260506210404 17 224 1.6 14.5 0.00 0.00 0.00 56 1008.4
20260506204904 18 257 3.2 12.9 0.00 0.00 0.00 56 1008.1
20260506204405 18 241 4.8 14.5 0.00 0.00 0.00 55 1008.1
20260506203905 18 249 4.8 11.3 0.00 0.00 0.00 55 1007.9
20260506203404 18 250 8.0 16.1 0.00 0.00 0.00 55 1007.9
20260506201904 18 242 3.2 12.9 0.00 0.00 0.00 54 1007.9
20260506201404 18 256 3.2 16.1 0.00 0.00 0.00 54 1007.9
20260506200905 18 228 6.4 14.5 0.00 0.00 0.00 53 1007.9
20260506200405 19 259 4.8 12.9 0.00 0.00 0.00 53 1007.8
20260506194905 20 231 4.8 14.5 0.00 0.00 0.00 51 1007.7
20260506194404 20 231 4.8 14.5 0.00 0.00 0.00 50 1007.6
20260506193904 20 245 3.2 8.0 0.00 0.00 0.00 50 1007.5
20260506193405 20 234 4.8 16.1 0.00 0.00 0.00 49 1007.4
20260506191904 20 247 3.2 12.9 0.00 0.00 0.00 49 1007.3
20260506191405 20 262 3.2 11.3 0.00 0.00 0.00 48 1007.2
20260506190905 20 250 1.6 9.7 0.00 0.00 0.00 48 1007.2
20260506190405 20 250 9.7 19.3 0.00 0.00 0.00 48 1007.1
20260506184905 21 251 6.4 19.3 0.00 0.00 0.00 46 1007.0
20260506184404 21 253 9.7 20.9 0.00 0.00 0.00 46 1007.0
20260506183405 21 255 14.5 22.5 0.00 0.00 0.00 45 1007.0
20260506181905 22 222 8.0 19.3 0.00 0.00 0.00 45 1007.0
20260506181404 22 236 6.4 14.5 0.00 0.00 0.00 45 1006.9
20260506180904 22 253 4.8 20.9 0.00 0.00 0.00 45 1006.9
20260506180405 22 241 11.3 24.1 0.00 0.00 0.00 43 1007.0
20260506174904 22 240 4.8 19.3 0.00 0.00 0.00 40 1007.0
20260506174404 22 217 8.0 19.3 0.00 0.00 0.00 40 1007.0
20260506173404 23 239 8.0 19.3 0.00 0.00 0.00 39 1007.0
20260506171905 23 208 6.4 12.9 0.00 0.00 0.00 39 1007.2
20260506171405 23 211 9.7 19.3 0.00 0.00 0.00 39 1007.2
20260506170405 23 217 6.4 22.5 0.00 0.00 0.00 39 1007.2
20260506163904 23 230 8.0 19.3 0.00 0.00 0.00 38 1007.3
20260506163404 23 229 9.7 24.1 0.00 0.00 0.00 39 1007.3
20260506161905 23 184 11.3 19.3 0.00 0.00 0.00 39 1007.3
20260506154904 23 141 4.8 14.5 0.00 0.00 0.00 35 1007.4
20260506154404 24 139 11.3 20.9 0.00 0.00 0.00 35 1007.5
20260506153904 24 124 8.0 20.9 0.00 0.00 0.00 35 1007.5
20260506151904 23 132 6.4 14.5 0.00 0.00 0.00 36 1007.8
20260506151405 23 42 3.2 8.0 0.00 0.00 0.00 36 1007.9
20260506150905 23 133 4.8 14.5 0.00 0.00 0.00 36 1008.0
20260506150404 23 77 1.6 16.1 0.00 0.00 0.00 36 1008.1